Location: ??????
(41.3164°N, 22.6615°E)
Time: 09:55:49
(UTC+00:00)

Cosmos 2278 - Pass Details

Date: 16 October 2021
Orbit: 838 x 854 km, 71.1° (Epoch: 08 December)

Event Time Altitude Azimuth Distance (km) Brightness Sun altitude
Rises 17:44:05 0° 216° (SW) 3,383 7.2 -22.7°
Reaches altitude 10° 17:46:35 10° 221° (SW) 2,455 6.5 -23.2°
Maximum altitude 17:52:04 53° 298° (WNW) 1,037 4.4 -24.2°
Drops below altitude 10° 17:57:38 10° 15° (NNE) 2,480 6.1 -25.3°
Sets 18:00:10 0° 20° (NNE) 3,421 6.8 -25.7°
